| time (UTC) | temp C | wind direction | speed KPH | gust KPH | rain 1hr cm | rain 24hr cm | rain mn cm | humidity % | barometer mb |
| 20260503020519 | 11 | 0 | 0.0 | 0.0 | 0.00 | 0.10 | 0.10 | 86 | 1015.1 |
| 20260503020044 | 11 | 0 | 0.0 | 0.0 | 0.00 | 0.10 | 0.10 | 86 | 1014.9 |
| 20260503015520 | 11 | 0 | 0.0 | 0.0 | 0.00 | 0.10 | 0.10 | 86 | 1014.9 |
| 20260503015019 | 11 | 0 | 0.0 | 0.0 | 0.00 | 0.10 | 0.10 | 85 | 1014.8 |
| 20260503014558 | 11 | 0 | 0.0 | 0.0 | 0.00 | 0.10 | 0.10 | 85 | 1014.6 |
| 20260503014020 | 11 | 0 | 0.0 | 0.0 | 0.00 | 0.10 | 0.10 | 85 | 1014.5 |
| 20260503013521 | 11 | 0 | 0.0 | 0.0 | 0.00 | 0.10 | 0.10 | 84 | 1014.5 |
| 20260503013040 | 12 | 0 | 0.0 | 0.0 | 0.00 | 0.10 | 0.10 | 84 | 1014.4 |
| 20260503012521 | 12 | 0 | 0.0 | 0.0 | 0.00 | 0.10 | 0.10 | 84 | 1014.5 |
| 20260503012017 | 12 | 0 | 0.0 | 0.0 | 0.00 | 0.10 | 0.10 | 84 | 1014.3 |
| 20260503011542 | 12 | 0 | 0.0 | 0.0 | 0.00 | 0.10 | 0.10 | 84 | 1014.2 |
| 20260503011021 | 12 | 0 | 0.0 | 0.0 | 0.00 | 0.10 | 0.10 | 83 | 1014.2 |
| 20260503010519 | 12 | 0 | 0.0 | 0.0 | 0.00 | 0.10 | 0.10 | 83 | 1014.1 |
| 20260503010047 | 12 | 0 | 0.0 | 0.0 | 0.00 | 0.10 | 0.10 | 83 | 1014.1 |
| 20260503005520 | 12 | 0 | 0.0 | 0.0 | 0.00 | 0.10 | 0.10 | 82 | 1014.0 |
| 20260503005020 | 12 | 0 | 0.0 | 0.0 | 0.00 | 0.10 | 0.10 | 81 | 1013.9 |
| 20260503004534 | 12 | 0 | 0.0 | 0.0 | 0.00 | 0.10 | 0.10 | 81 | 1013.9 |
| 20260503004018 | 12 | 0 | 0.0 | 0.0 | 0.00 | 0.10 | 0.10 | 80 | 1013.8 |
| 20260503003519 | 12 | 0 | 0.0 | 0.0 | 0.00 | 0.10 | 0.10 | 79 | 1013.8 |
| 20260503003036 | 13 | 0 | 0.0 | 0.0 | 0.00 | 0.10 | 0.10 | 79 | 1013.7 |
| 20260503002521 | 13 | 0 | 0.0 | 0.0 | 0.00 | 0.10 | 0.10 | 78 | 1013.7 |
| 20260503002017 | 13 | 0 | 0.0 | 0.0 | 0.00 | 0.10 | 0.10 | 78 | 1013.6 |
| 20260503001536 | 13 | 0 | 0.0 | 0.0 | 0.00 | 0.10 | 0.10 | 77 | 1013.5 |
| 20260503001019 | 13 | 0 | 0.0 | 0.0 | 0.00 | 0.10 | 0.10 | 76 | 1013.4 |
| 20260503000522 | 13 | 0 | 0.0 | 0.0 | 0.00 | 0.10 | 0.10 | 76 | 1013.4 |
| 20260503000036 | 14 | 0 | 0.0 | 0.0 | 0.00 | 0.10 | 0.10 | 75 | 1013.3 |
| 20260502235520 | 14 | 0 | 0.0 | 0.0 | 0.00 | 0.10 | 0.10 | 75 | 1013.3 |
| 20260502235019 | 14 | 0 | 0.0 | 0.0 | 0.00 | 0.10 | 0.10 | 75 | 1013.3 |
| 20260502234541 | 14 | 0 | 0.0 | 0.0 | 0.00 | 0.10 | 0.10 | 75 | 1013.2 |
| 20260502234018 | 14 | 0 | 0.0 | 0.0 | 0.00 | 0.10 | 0.10 | 75 | 1013.1 |
| 20260502233519 | 14 | 0 | 0.0 | 1.6 | 0.00 | 0.10 | 0.10 | 74 | 1012.9 |
| 20260502233036 | 15 | 0 | 0.0 | 1.6 | 0.00 | 0.10 | 0.10 | 74 | 1012.9 |
| 20260502232518 | 15 | 0 | 0.0 | 0.0 | 0.00 | 0.10 | 0.10 | 75 | 1012.9 |
| 20260502232019 | 15 | 0 | 0.0 | 0.0 | 0.00 | 0.10 | 0.10 | 74 | 1012.9 |
| 20260502231534 | 15 | 0 | 0.0 | 3.2 | 0.00 | 0.10 | 0.10 | 74 | 1012.8 |
| 20260502231017 | 15 | 0 | 0.0 | 3.2 | 0.00 | 0.10 | 0.10 | 74 | 1012.7 |
| 20260502230517 | 15 | 0 | 0.0 | 3.2 | 0.03 | 0.10 | 0.10 | 73 | 1012.7 |
| 20260502230036 | 15 | 0 | 0.0 | 1.6 | 0.03 | 0.10 | 0.10 | 75 | 1012.8 |
| 20260502225517 | 15 | 0 | 0.0 | 0.0 | 0.03 | 0.10 | 0.10 | 75 | 1012.9 |
| 20260502225017 | 15 | 0 | 0.0 | 0.0 | 0.03 | 0.10 | 0.10 | 74 | 1012.8 |
| 20260502224536 | 15 | 0 | 0.0 | 0.0 | 0.03 | 0.10 | 0.10 | 74 | 1012.8 |
| 20260502224020 | 15 | 0 | 0.0 | 0.0 | 0.03 | 0.10 | 0.10 | 74 | 1012.9 |
| 20260502223520 | 15 | 0 | 0.0 | 6.4 | 0.03 | 0.10 | 0.10 | 74 | 1012.7 |
| 20260502223038 | 15 | 0 | 0.0 | 6.4 | 0.03 | 0.10 | 0.10 | 74 | 1012.7 |
| 20260502222520 | 15 | 0 | 0.0 | 3.2 | 0.03 | 0.10 | 0.10 | 73 | 1012.7 |
| 20260502222020 | 15 | 0 | 0.0 | 3.2 | 0.03 | 0.10 | 0.10 | 73 | 1012.8 |
| 20260502221535 | 15 | 0 | 0.0 | 6.4 | 0.03 | 0.10 | 0.10 | 73 | 1012.8 |
| 20260502221018 | 15 | 0 | 0.0 | 6.4 | 0.03 | 0.10 | 0.10 | 73 | 1012.8 |
| 20260502220519 | 15 | 0 | 0.0 | 4.8 | 0.00 | 0.08 | 0.08 | 74 | 1012.8 |
| 20260502220032 | 15 | 0 | 0.0 | 4.8 | 0.00 | 0.08 | 0.08 | 73 | 1012.8 |
| 20260502215520 | 15 | 0 | 0.0 | 3.2 | 0.00 | 0.08 | 0.08 | 72 | 1012.8 |
| 20260502215019 | 15 | 0 | 0.0 | 3.2 | 0.00 | 0.08 | 0.08 | 73 | 1012.7 |
| 20260502214536 | 15 | 0 | 0.0 | 3.2 | 0.00 | 0.08 | 0.08 | 73 | 1012.8 |
| 20260502214019 | 15 | 52 | 0.0 | 1.6 | 0.00 | 0.08 | 0.08 | 72 | 1012.7 |
| 20260502213518 | 15 | 0 | 0.0 | 1.6 | 0.00 | 0.08 | 0.08 | 73 | 1012.7 |
| 20260502213036 | 15 | 0 | 0.0 | 3.2 | 0.00 | 0.08 | 0.08 | 72 | 1012.5 |
| 20260502212524 | 15 | 0 | 0.0 | 4.8 | 0.00 | 0.08 | 0.08 | 72 | 1012.3 |
| 20260502212020 | 15 | 0 | 0.0 | 4.8 | 0.00 | 0.08 | 0.08 | 72 | 1012.3 |
| 20260502211542 | 15 | 5 | 0.0 | 9.7 | 0.00 | 0.08 | 0.08 | 72 | 1012.4 |
| 20260502211023 | 15 | 0 | 0.0 | 9.7 | 0.00 | 0.08 | 0.08 | 72 | 1012.4 |
| 20260502210519 | 15 | 0 | 1.6 | 9.7 | 0.00 | 0.08 | 0.08 | 71 | 1012.3 |
| 20260502210038 | 15 | 107 | 1.6 | 9.7 | 0.00 | 0.08 | 0.08 | 70 | 1012.5 |
| 20260502205522 | 15 | 0 | 0.0 | 9.7 | 0.00 | 0.08 | 0.08 | 71 | 1012.6 |
| 20260502205025 | 15 | 0 | 0.0 | 8.0 | 0.00 | 0.08 | 0.08 | 70 | 1012.6 |
| 20260502204540 | 15 | 0 | 0.0 | 9.7 | 0.00 | 0.08 | 0.08 | 71 | 1012.6 |
| 20260502204020 | 15 | 76 | 0.0 | 9.7 | 0.00 | 0.08 | 0.08 | 72 | 1012.7 |
| 20260502203521 | 15 | 0 | 0.0 | 9.7 | 0.00 | 0.08 | 0.08 | 73 | 1012.6 |
| 20260502203039 | 15 | 0 | 1.6 | 9.7 | 0.00 | 0.08 | 0.08 | 75 | 1012.6 |
| 20260502202521 | 14 | 82 | 0.0 | 4.8 | 0.00 | 0.08 | 0.08 | 77 | 1012.5 |
| 20260502202022 | 13 | 0 | 0.0 | 4.8 | 0.00 | 0.08 | 0.08 | 78 | 1012.6 |
| 20260502201537 | 13 | 0 | 0.0 | 4.8 | 0.00 | 0.08 | 0.08 | 78 | 1012.6 |
| 20260502201023 | 13 | 0 | 0.0 | 9.7 | 0.00 | 0.08 | 0.08 | 78 | 1012.6 |
| 20260502200520 | 13 | 0 | 1.6 | 9.7 | 0.00 | 0.08 | 0.08 | 77 | 1012.6 |
| 20260502200037 | 13 | 132 | 0.0 | 14.5 | 0.00 | 0.08 | 0.08 | 79 | 1012.8 |
| 20260502195519 | 13 | 0 | 0.0 | 14.5 | 0.00 | 0.08 | 0.08 | 79 | 1012.9 |
| 20260502195020 | 13 | 40 | 0.0 | 14.5 | 0.00 | 0.08 | 0.08 | 79 | 1013.0 |
| 20260502194537 | 13 | 275 | 0.0 | 12.9 | 0.00 | 0.08 | 0.08 | 80 | 1013.1 |
| 20260502194020 | 13 | 351 | 0.0 | 12.9 | 0.00 | 0.08 | 0.08 | 81 | 1013.1 |
| 20260502193531 | 13 | 0 | 0.0 | 4.8 | 0.00 | 0.08 | 0.08 | 82 | 1013.1 |
| 20260502193039 | 13 | 99 | 0.0 | 4.8 | 0.00 | 0.08 | 0.08 | 84 | 1013.0 |
| 20260502192519 | 13 | 0 | 0.0 | 6.4 | 0.00 | 0.08 | 0.08 | 84 | 1013.1 |
| 20260502192020 | 13 | 78 | 0.0 | 6.4 | 0.00 | 0.08 | 0.08 | 84 | 1012.9 |
| 20260502191537 | 13 | 101 | 0.0 | 6.4 | 0.00 | 0.08 | 0.08 | 85 | 1013.1 |
| 20260502191021 | 13 | 0 | 0.0 | 8.0 | 0.00 | 0.08 | 0.08 | 85 | 1013.0 |
| 20260502190522 | 13 | 66 | 0.0 | 8.0 | 0.00 | 0.08 | 0.08 | 84 | 1013.1 |
| 20260502190041 | 13 | 0 | 0.0 | 6.4 | 0.03 | 0.08 | 0.08 | 83 | 1013.3 |
| 20260502185520 | 12 | 0 | 1.6 | 12.9 | 0.03 | 0.08 | 0.08 | 83 | 1013.3 |
| 20260502185021 | 12 | 0 | 0.0 | 12.9 | 0.03 | 0.08 | 0.08 | 84 | 1013.4 |
| 20260502184549 | 12 | 0 | 0.0 | 9.7 | 0.03 | 0.08 | 0.08 | 85 | 1013.2 |
| 20260502184020 | 12 | 89 | 0.0 | 12.9 | 0.03 | 0.08 | 0.08 | 87 | 1013.1 |
| 20260502183522 | 12 | 229 | 1.6 | 12.9 | 0.03 | 0.08 | 0.08 | 88 | 1013.0 |
| 20260502183052 | 12 | 103 | 1.6 | 12.9 | 0.03 | 0.08 | 0.08 | 89 | 1012.9 |
| 20260502182521 | 12 | 0 | 1.6 | 16.1 | 0.03 | 0.08 | 0.08 | 90 | 1013.0 |
| 20260502182023 | 12 | 0 | 0.0 | 16.1 | 0.03 | 0.08 | 0.08 | 91 | 1013.1 |
| 20260502181543 | 12 | 0 | 0.0 | 8.0 | 0.03 | 0.08 | 0.08 | 91 | 1013.2 |
| 20260502181020 | 12 | 0 | 0.0 | 8.0 | 0.03 | 0.08 | 0.08 | 92 | 1013.2 |
| 20260502180520 | 12 | 92 | 0.0 | 9.7 | 0.03 | 0.08 | 0.08 | 92 | 1013.1 |
| 20260502170519 | 12 | 0 | 1.6 | 12.9 | 0.00 | 0.05 | 0.05 | 94 | 1013.4 |
| 20260502164021 | 12 | 0 | 1.6 | 6.4 | 0.00 | 0.08 | 0.05 | 94 | 1013.0 |
| 20260502163522 | 12 | 0 | 1.6 | 6.4 | 0.00 | 0.08 | 0.05 | 94 | 1013.3 |
| 20260502163042 | 13 | 107 | 0.0 | 11.3 | 0.00 | 0.08 | 0.05 | 95 | 1013.1 |
| 20260502162520 | 13 | 0 | 0.0 | 14.5 | 0.00 | 0.08 | 0.05 | 94 | 1013.0 |
| 20260502162022 | 13 | 0 | 1.6 | 14.5 | 0.00 | 0.08 | 0.05 | 94 | 1013.0 |
| 20260502161541 | 13 | 109 | 0.0 | 11.3 | 0.00 | 0.08 | 0.05 | 95 | 1013.0 |
| 20260502161021 | 13 | 32 | 0.0 | 8.0 | 0.00 | 0.08 | 0.05 | 95 | 1013.0 |
| 20260502160521 | 13 | 0 | 0.0 | 8.0 | 0.00 | 0.08 | 0.05 | 95 | 1013.0 |
| 20260502152020 | 15 | 0 | 0.0 | 4.8 | 0.00 | 0.08 | 0.05 | 95 | 1012.8 |
| 20260502151543 | 15 | 0 | 0.0 | 8.0 | 0.00 | 0.08 | 0.05 | 95 | 1012.8 |
| 20260502151020 | 15 | 5 | 0.0 | 8.0 | 0.00 | 0.08 | 0.05 | 96 | 1012.5 |
| 20260502150522 | 15 | 0 | 1.6 | 8.0 | 0.00 | 0.08 | 0.05 | 95 | 1012.5 |
| 20260502130521 | 13 | 0 | 0.0 | 0.0 | 0.03 | 0.10 | 0.05 | 94 | 1013.0 |
| 20260502123519 | 13 | 0 | 0.0 | 0.0 | 0.00 | 0.08 | 0.03 | 94 | 1013.2 |
| 20260502123041 | 13 | 0 | 0.0 | 0.0 | 0.00 | 0.08 | 0.03 | 94 | 1013.1 |
| 20260502122522 | 13 | 0 | 0.0 | 0.0 | 0.00 | 0.08 | 0.03 | 94 | 1012.8 |
| 20260502122055 | 13 | 0 | 0.0 | 0.0 | 0.00 | 0.08 | 0.03 | 94 | 1012.6 |
| 20260502121536 | 13 | 0 | 0.0 | 0.0 | 0.00 | 0.08 | 0.03 | 94 | 1012.3 |
| 20260502121021 | 13 | 0 | 0.0 | 0.0 | 0.00 | 0.08 | 0.03 | 94 | 1012.3 |
| 20260502120519 | 13 | 0 | 0.0 | 0.0 | 0.00 | 0.08 | 0.03 | 93 | 1012.2 |
| 20260502115521 | 13 | 0 | 0.0 | 0.0 | 0.00 | 0.08 | 0.03 | 93 | 1012.3 |
| 20260502115022 | 13 | 0 | 0.0 | 0.0 | 0.00 | 0.08 | 0.03 | 93 | 1012.0 |
| 20260502114532 | 13 | 0 | 0.0 | 0.0 | 0.00 | 0.08 | 0.03 | 93 | 1012.1 |
| 20260502114020 | 13 | 0 | 0.0 | 0.0 | 0.00 | 0.08 | 0.03 | 93 | 1012.0 |
| 20260502113520 | 13 | 0 | 0.0 | 0.0 | 0.00 | 0.08 | 0.03 | 93 | 1012.0 |
| 20260502113041 | 13 | 0 | 0.0 | 0.0 | 0.00 | 0.08 | 0.03 | 93 | 1011.9 |
| 20260502112523 | 13 | 0 | 0.0 | 0.0 | 0.00 | 0.08 | 0.03 | 93 | 1011.8 |
| 20260502112025 | 13 | 0 | 0.0 | 0.0 | 0.00 | 0.08 | 0.03 | 93 | 1011.6 |
| 20260502111537 | 13 | 0 | 0.0 | 0.0 | 0.00 | 0.08 | 0.03 | 93 | 1011.3 |
| 20260502111022 | 13 | 0 | 0.0 | 0.0 | 0.00 | 0.08 | 0.03 | 93 | 1011.2 |
| 20260502110519 | 13 | 0 | 0.0 | 0.0 | 0.00 | 0.08 | 0.03 | 93 | 1011.0 |
| 20260502110038 | 13 | 0 | 0.0 | 0.0 | 0.00 | 0.08 | 0.03 | 93 | 1010.9 |
| 20260502105522 | 13 | 0 | 0.0 | 0.0 | 0.00 | 0.10 | 0.03 | 93 | 1010.8 |
| 20260502105021 | 13 | 0 | 0.0 | 0.0 | 0.00 | 0.10 | 0.03 | 92 | 1011.1 |
| 20260502104543 | 13 | 0 | 0.0 | 0.0 | 0.00 | 0.10 | 0.03 | 93 | 1011.3 |
| 20260502104019 | 13 | 0 | 0.0 | 1.6 | 0.00 | 0.10 | 0.03 | 93 | 1011.4 |
| 20260502103520 | 13 | 0 | 0.0 | 1.6 | 0.00 | 0.10 | 0.03 | 92 | 1011.4 |
| 20260502103039 | 14 | 0 | 0.0 | 0.0 | 0.00 | 0.10 | 0.03 | 92 | 1011.4 |
| 20260502102520 | 14 | 0 | 0.0 | 0.0 | 0.00 | 0.10 | 0.03 | 92 | 1011.5 |
| 20260502102023 | 14 | 0 | 0.0 | 0.0 | 0.00 | 0.10 | 0.03 | 92 | 1011.7 |
| 20260502101608 | 14 | 0 | 0.0 | 0.0 | 0.00 | 0.10 | 0.03 | 92 | 1011.9 |
| 20260502101022 | 14 | 0 | 0.0 | 0.0 | 0.00 | 0.10 | 0.03 | 92 | 1011.9 |
| 20260502100520 | 14 | 0 | 0.0 | 0.0 | 0.00 | 0.10 | 0.03 | 92 | 1012.0 |
| 20260502091534 | 14 | 0 | 0.0 | 0.0 | 0.03 | 0.10 | 0.03 | 90 | 1012.5 |
| 20260502091021 | 14 | 0 | 0.0 | 0.0 | 0.03 | 0.10 | 0.03 | 90 | 1012.7 |
| 20260502090520 | 14 | 0 | 0.0 | 0.0 | 0.03 | 0.10 | 0.03 | 90 | 1012.7 |
| 20260502071535 | 15 | 0 | 0.0 | 0.0 | 0.00 | 0.10 | 0.00 | 87 | 1012.4 |
| 20260502071023 | 15 | 0 | 0.0 | 0.0 | 0.00 | 0.10 | 0.00 | 87 | 1012.3 |
| 20260502070522 | 15 | 0 | 0.0 | 0.0 | 0.00 | 0.10 | 0.00 | 87 | 1012.2 |
| 20260502070054 | 15 | 0 | 0.0 | 0.0 | 0.00 | 0.10 | 0.00 | 87 | 1012.2 |
| 20260502065521 | 15 | 0 | 0.0 | 0.0 | 0.00 | 0.13 | 0.00 | 87 | 1012.2 |
| 20260502065021 | 15 | 0 | 0.0 | 0.0 | 0.00 | 0.13 | 0.00 | 87 | 1012.2 |
| 20260502064539 | 15 | 0 | 0.0 | 0.0 | 0.00 | 0.13 | 0.00 | 87 | 1012.1 |
| 20260502064021 | 15 | 0 | 0.0 | 0.0 | 0.00 | 0.13 | 0.00 | 87 | 1012.1 |
| 20260502063522 | 15 | 0 | 0.0 | 0.0 | 0.00 | 0.13 | 0.00 | 87 | 1012.0 |
| 20260502063038 | 15 | 0 | 0.0 | 0.0 | 0.00 | 0.13 | 0.00 | 87 | 1012.1 |
| 20260502062522 | 15 | 0 | 0.0 | 0.0 | 0.00 | 0.13 | 0.00 | 87 | 1012.1 |
| 20260502062023 | 15 | 0 | 0.0 | 0.0 | 0.00 | 0.13 | 0.00 | 87 | 1012.1 |
| 20260502061536 | 15 | 0 | 0.0 | 0.0 | 0.00 | 0.13 | 0.00 | 87 | 1012.3 |
| 20260502061018 | 15 | 0 | 0.0 | 0.0 | 0.00 | 0.13 | 0.00 | 87 | 1012.3 |
| 20260502060519 | 15 | 0 | 0.0 | 0.0 | 0.00 | 0.13 | 0.00 | 87 | 1012.5 |
| 20260502060036 | 15 | 0 | 0.0 | 0.0 | 0.00 | 0.13 | 0.00 | 87 | 1012.7 |
| 20260502055521 | 15 | 0 | 0.0 | 0.0 | 0.00 | 0.13 | 0.00 | 86 | 1012.8 |
| 20260502055019 | 15 | 0 | 0.0 | 0.0 | 0.00 | 0.13 | 0.00 | 86 | 1012.8 |
| 20260502054539 | 15 | 0 | 0.0 | 0.0 | 0.00 | 0.13 | 0.00 | 86 | 1012.8 |
| 20260502054021 | 15 | 0 | 0.0 | 0.0 | 0.00 | 0.13 | 0.00 | 85 | 1012.9 |
| 20260502053518 | 15 | 0 | 0.0 | 0.0 | 0.00 | 0.13 | 0.00 | 85 | 1012.9 |
| 20260502053032 | 15 | 0 | 0.0 | 0.0 | 0.00 | 0.13 | 0.00 | 85 | 1013.0 |
| 20260502052518 | 15 | 0 | 0.0 | 0.0 | 0.00 | 0.13 | 0.00 | 85 | 1013.0 |
| 20260502052021 | 15 | 0 | 0.0 | 0.0 | 0.00 | 0.13 | 0.00 | 84 | 1012.8 |
| 20260502051553 | 15 | 0 | 0.0 | 0.0 | 0.00 | 0.13 | 0.00 | 84 | 1012.8 |
| 20260502051019 | 15 | 0 | 0.0 | 0.0 | 0.00 | 0.13 | 0.00 | 84 | 1012.8 |
| 20260502050519 | 15 | 0 | 0.0 | 0.0 | 0.00 | 0.13 | 0.00 | 84 | 1012.8 |
| 20260502050036 | 15 | 0 | 0.0 | 0.0 | 0.00 | 0.13 | 0.00 | 84 | 1012.7 |
| 20260502045520 | 15 | 0 | 0.0 | 0.0 | 0.00 | 0.13 | 0.00 | 84 | 1012.7 |
| 20260502045021 | 15 | 0 | 0.0 | 0.0 | 0.00 | 0.13 | 0.00 | 84 | 1012.8 |
| 20260502044536 | 15 | 0 | 0.0 | 0.0 | 0.00 | 0.13 | 0.00 | 84 | 1012.7 |
| 20260502044020 | 15 | 0 | 0.0 | 0.0 | 0.00 | 0.13 | 0.00 | 83 | 1012.8 |
| 20260502043519 | 15 | 0 | 0.0 | 0.0 | 0.00 | 0.13 | 0.00 | 83 | 1012.8 |
| 20260502043039 | 15 | 0 | 0.0 | 0.0 | 0.00 | 0.13 | 0.00 | 83 | 1012.8 |
| 20260502042519 | 15 | 0 | 0.0 | 0.0 | 0.00 | 0.13 | 0.00 | 83 | 1013.0 |
| 20260502042022 | 15 | 0 | 0.0 | 0.0 | 0.00 | 0.13 | 0.00 | 83 | 1013.1 |
| 20260502041536 | 15 | 0 | 0.0 | 0.0 | 0.00 | 0.13 | 0.00 | 83 | 1013.2 |
| 20260502041020 | 15 | 0 | 0.0 | 0.0 | 0.00 | 0.13 | 0.00 | 83 | 1013.2 |
| 20260502040522 | 15 | 0 | 0.0 | 0.0 | 0.00 | 0.13 | 0.00 | 83 | 1013.4 |
| 20260502040051 | 15 | 0 | 0.0 | 0.0 | 0.00 | 0.13 | 0.00 | 82 | 1013.3 |
| 20260502035521 | 15 | 0 | 0.0 | 0.0 | 0.00 | 0.15 | 0.13 | 82 | 1013.2 |
| 20260502035019 | 15 | 0 | 0.0 | 0.0 | 0.00 | 0.15 | 0.13 | 82 | 1013.3 |
| 20260502034536 | 15 | 0 | 0.0 | 0.0 | 0.00 | 0.15 | 0.13 | 82 | 1013.3 |
| 20260502034021 | 15 | 0 | 0.0 | 0.0 | 0.00 | 0.15 | 0.13 | 83 | 1013.2 |
| 20260502033521 | 15 | 0 | 0.0 | 0.0 | 0.00 | 0.15 | 0.13 | 83 | 1013.2 |
| 20260502033036 | 15 | 0 | 0.0 | 0.0 | 0.00 | 0.15 | 0.13 | 83 | 1013.2 |
| 20260502032520 | 15 | 0 | 0.0 | 0.0 | 0.00 | 0.15 | 0.13 | 83 | 1013.2 |
| 20260502032019 | 15 | 0 | 0.0 | 0.0 | 0.00 | 0.15 | 0.13 | 83 | 1013.3 |
| 20260502031532 | 15 | 0 | 0.0 | 0.0 | 0.00 | 0.15 | 0.13 | 82 | 1013.3 |
| 20260502031020 | 15 | 0 | 0.0 | 0.0 | 0.00 | 0.15 | 0.13 | 82 | 1013.4 |
| 20260502030520 | 15 | 0 | 0.0 | 0.0 | 0.00 | 0.15 | 0.13 | 82 | 1013.4 |
| 20260502030107 | 15 | 0 | 0.0 | 0.0 | 0.00 | 0.15 | 0.13 | 82 | 1013.4 |
| 20260502025519 | 15 | 0 | 0.0 | 0.0 | 0.00 | 0.15 | 0.13 | 81 | 1013.4 |
| 20260502025019 | 15 | 0 | 0.0 | 0.0 | 0.00 | 0.15 | 0.13 | 81 | 1013.3 |
| 20260502024540 | 15 | 0 | 0.0 | 0.0 | 0.00 | 0.15 | 0.13 | 81 | 1013.2 |
| 20260502024022 | 15 | 0 | 0.0 | 0.0 | 0.00 | 0.15 | 0.13 | 80 | 1013.3 |
| 20260502023521 | 15 | 0 | 0.0 | 0.0 | 0.00 | 0.15 | 0.13 | 80 | 1013.3 |
| 20260502023044 | 16 | 0 | 0.0 | 0.0 | 0.00 | 0.15 | 0.13 | 80 | 1013.2 |
| 20260502022521 | 16 | 0 | 0.0 | 0.0 | 0.00 | 0.15 | 0.13 | 80 | 1013.2 |
| 20260502022020 | 16 | 0 | 0.0 | 0.0 | 0.00 | 0.15 | 0.13 | 80 | 1013.3 |
| 20260502021536 | 16 | 0 | 0.0 | 0.0 | 0.00 | 0.15 | 0.13 | 79 | 1013.4 |
| 20260502021018 | 16 | 0 | 0.0 | 0.0 | 0.00 | 0.15 | 0.13 | 79 | 1013.3 |